FW7071 Weather Reports


Display with metric or nautical units.
time (UTC)temp
F
wind
direction
speed
MPH
gust
MPH
rain 1hr
in
rain 24hr
in
rain mn
in
humidity
%
barometer
mb
20260905230321 74 148 0.0 0.0 0.00 0.00 0.00 69 1013.5
20260905225820 75 126 0.0 0.0 0.00 0.00 0.00 68 1013.4
20260905225310 75 123 0.0 1.0 0.00 0.00 0.00 67 1013.4
20260905224810 75 75 1.0 2.0 0.00 0.00 0.00 67 1013.5
20260905224306 75 134 0.0 0.0 0.00 0.00 0.00 67 1013.4
20260905223801 75 38 0.0 0.0 0.00 0.00 0.00 66 1013.4
20260905223258 76 118 1.0 1.0 0.00 0.00 0.00 65 1013.3
20260905222753 77 1 1.0 1.0 0.00 0.00 0.00 63 1013.4
20260905222252 77 144 0.0 0.0 0.00 0.00 0.00 62 1013.5
20260905221748 78 64 1.0 1.0 0.00 0.00 0.00 62 1013.4
20260905221245 79 316 6.0 9.0 0.00 0.00 0.00 59 1013.3
20260905220740 79 269 1.0 2.0 0.00 0.00 0.00 60 1013.4
20260905220236 79 220 1.0 1.0 0.00 0.00 0.00 61 1013.1
20260905215735 79 203 0.0 1.0 0.00 0.00 0.00 61 1013.2
20260905215231 80 216 0.0 1.0 0.00 0.00 0.00 59 1013.1
20260905214721 80 253 1.0 1.0 0.00 0.00 0.00 57 1013.1
20260905214216 80 264 1.0 1.0 0.00 0.00 0.00 57 1013.0
20260905213712 80 255 1.0 1.0 0.00 0.00 0.00 57 1013.2
20260905213208 79 321 3.0 5.0 0.00 0.00 0.00 57 1012.9
20260905212703 81 94 0.0 1.0 0.00 0.00 0.00 59 1012.9
20260905212202 81 239 2.0 3.0 0.00 0.00 0.00 57 1013.0
20260905211702 81 68 3.0 3.0 0.00 0.00 0.00 57 1013.0
20260905211152 81 278 4.0 6.0 0.00 0.00 0.00 57 1012.8
20260905210649 81 2 1.0 1.0 0.00 0.00 0.00 57 1013.1
20260905210148 81 268 2.0 2.0 0.00 0.00 0.00 57 1012.9
20260905205647 81 267 2.0 2.0 0.00 0.00 0.00 58 1013.0
20260905205142 80 273 0.0 0.0 0.00 0.00 0.00 59 1013.0
20260905204641 80 160 1.0 1.0 0.00 0.00 0.00 58 1013.0
20260905204136 79 244 3.0 3.0 0.00 0.00 0.00 58 1012.8
20260905203631 80 108 0.0 0.0 0.00 0.00 0.00 58 1012.9
20260905203126 80 125 1.0 1.0 0.00 0.00 0.00 56 1013.0
20260905202622 80 269 1.0 2.0 0.00 0.00 0.00 57 1012.9
20260905202117 80 200 1.0 2.0 0.00 0.00 0.00 56 1013.1
20260905201612 81 269 6.0 7.0 0.00 0.00 0.00 54 1013.0
20260905201112 81 116 1.0 2.0 0.00 0.00 0.00 56 1013.4
20260905200608 81 206 2.0 2.0 0.00 0.00 0.00 54 1013.2
20260905195555 81 306 2.0 3.0 0.00 0.00 0.00 54 1013.1
20260905195051 81 232 1.0 1.0 0.00 0.00 0.00 57 1013.4
20260905194550 81 320 4.0 6.0 0.00 0.00 0.00 54 1013.2
20260905194050 82 253 5.0 6.0 0.00 0.00 0.00 54 1013.1
20260905193545 82 220 0.0 1.0 0.00 0.00 0.00 58 1013.3
20260905193035 81 219 2.0 3.0 0.00 0.00 0.00 56 1013.3
20260905192530 80 252 3.0 3.0 0.00 0.00 0.00 56 1013.4
20260905192027 80 160 1.0 1.0 0.00 0.00 0.00 57 1013.5
20260905191525 80 117 2.0 2.0 0.00 0.00 0.00 55 1013.6
20260905191024 81 292 4.0 5.0 0.00 0.00 0.00 53 1013.3
20260905190522 81 240 2.0 2.0 0.00 0.00 0.00 57 1013.5
20260905190021 79 175 1.0 2.0 0.00 0.00 0.00 62 1013.2
20260905185516 79 97 2.0 3.0 0.00 0.00 0.00 63 1013.2
20260905185015 82 169 3.0 6.0 0.00 0.00 0.00 58 1013.5
20260905184510 81 208 1.0 2.0 0.00 0.00 0.00 57 1013.4
20260905184009 80 246 3.0 6.0 0.00 0.00 0.00 57 1013.4
20260905183508 81 305 7.0 9.0 0.00 0.00 0.00 55 1013.4
20260905183003 80 124 1.0 2.0 0.00 0.00 0.00 62 1013.4
20260905182503 81 201 2.0 3.0 0.00 0.00 0.00 58 1013.7
20260905181957 79 136 1.0 3.0 0.00 0.00 0.00 63 1013.6
20260905181452 77 147 0.0 1.0 0.00 0.00 0.00 63 1013.5
20260905180951 77 106 1.0 1.0 0.00 0.00 0.00 64 1013.7
20260905180446 79 275 1.0 2.0 0.00 0.00 0.00 62 1013.6
20260905175942 79 324 2.0 3.0 0.00 0.00 0.00 61 1013.7
20260905175441 79 302 6.0 8.0 0.00 0.00 0.00 59 1013.6
20260905174937 79 186 0.0 1.0 0.00 0.00 0.00 63 1013.7
20260905174432 80 71 2.0 3.0 0.00 0.00 0.00 61 1013.8
20260905173927 80 301 4.0 5.0 0.00 0.00 0.00 59 1013.7
20260905173424 79 286 9.0 11.0 0.00 0.00 0.00 60 1013.6
20260905172919 80 260 3.0 3.0 0.00 0.00 0.00 59 1013.9
20260905172416 79 236 2.0 2.0 0.00 0.00 0.00 63 1013.9
20260905171912 80 62 2.0 3.0 0.00 0.00 0.00 61 1013.6
20260905171403 79 260 3.0 5.0 0.00 0.00 0.00 60 1013.8
20260905170859 80 103 1.0 3.0 0.00 0.00 0.00 63 1013.8
20260905170355 79 300 4.0 5.0 0.00 0.00 0.00 62 1013.9
20260905165854 80 233 7.0 8.0 0.00 0.00 0.00 62 1013.9
20260905165349 80 184 1.0 1.0 0.00 0.00 0.00 62 1013.9
20260905164844 78 283 7.0 8.0 0.00 0.00 0.00 63 1013.8
20260905164339 79 229 1.0 2.0 0.00 0.00 0.00 64 1013.9
20260905163834 79 182 1.0 3.0 0.00 0.00 0.00 64 1014.0
20260905163330 78 161 1.0 2.0 0.00 0.00 0.00 66 1014.2
20260905162826 79 121 2.0 2.0 0.00 0.00 0.00 65 1014.2
20260905162320 78 236 0.0 1.0 0.00 0.00 0.00 67 1014.3
20260905161815 78 295 4.0 6.0 0.00 0.00 0.00 64 1014.5
20260905161315 79 57 3.0 6.0 0.00 0.00 0.00 64 1014.5
20260905160813 77 82 2.0 3.0 0.00 0.00 0.00 66 1014.6
20260905160313 79 99 3.0 5.0 0.00 0.00 0.00 64 1014.4
20260905155808 78 194 1.0 2.0 0.00 0.00 0.00 69 1014.5
20260905155307 78 124 3.0 3.0 0.00 0.00 0.00 66 1014.3
20260905154801 78 88 3.0 5.0 0.00 0.00 0.00 68 1014.4
20260905154257 78 68 4.0 6.0 0.00 0.00 0.00 67 1014.5
20260905153752 79 252 3.0 5.0 0.00 0.00 0.00 66 1014.3
20260905153248 78 141 0.0 0.0 0.00 0.00 0.00 67 1014.4
20260905152743 78 135 0.0 0.0 0.00 0.00 0.00 68 1014.4
20260905152242 77 122 4.0 5.0 0.00 0.00 0.00 68 1014.4
20260905151742 77 275 5.0 7.0 0.00 0.00 0.00 70 1014.2
20260905151238 77 160 3.0 3.0 0.00 0.00 0.00 70 1014.2
20260905150738 78 337 4.0 6.0 0.00 0.00 0.00 70 1014.4
20260905150238 79 165 0.0 1.0 0.00 0.00 0.00 71 1014.2
20260905145735 78 135 1.0 1.0 0.00 0.00 0.00 71 1014.5
20260905145230 77 47 1.0 3.0 0.00 0.00 0.00 72 1014.4
20260905144729 77 116 2.0 2.0 0.00 0.00 0.00 72 1014.2
20260905144224 77 110 1.0 1.0 0.00 0.00 0.00 72 1013.9
20260905143724 77 180 1.0 1.0 0.00 0.00 0.00 72 1013.8
20260905143223 76 66 1.0 2.0 0.00 0.00 0.00 72 1014.2
20260905142721 76 155 2.0 2.0 0.00 0.00 0.00 72 1014.2
20260905142216 76 99 2.0 2.0 0.00 0.00 0.00 72 1014.1
20260905141712 77 85 2.0 3.0 0.00 0.00 0.00 71 1014.2
20260905141208 76 135 0.0 1.0 0.00 0.00 0.00 73 1014.3
20260905140702 76 103 2.0 3.0 0.00 0.00 0.00 73 1014.3
20260905140157 75 87 1.0 2.0 0.00 0.00 0.00 76 1014.3
20260905135651 76 285 1.0 2.0 0.00 0.00 0.00 76 1014.3
20260905135147 77 70 1.0 2.0 0.00 0.00 0.00 75 1014.2
20260905134646 75 278 1.0 2.0 0.00 0.00 0.00 78 1014.3
20260905134146 74 149 1.0 2.0 0.00 0.00 0.00 78 1014.4
20260905133641 74 72 1.0 2.0 0.00 0.00 0.00 79 1014.4
20260905133136 75 193 1.0 2.0 0.00 0.00 0.00 78 1014.4
20260905132635 75 83 1.0 2.0 0.00 0.00 0.00 79 1014.3
20260905132130 75 124 0.0 0.0 0.00 0.00 0.00 79 1014.1
20260905131625 73 121 0.0 0.0 0.00 0.00 0.00 80 1014.0
20260905131121 73 76 4.0 8.0 0.00 0.00 0.00 81 1014.2
20260905130620 73 95 0.0 1.0 0.00 0.00 0.00 81 1014.1
20260905130115 73 238 2.0 2.0 0.00 0.00 0.00 81 1014.1
20260905125614 72 22 0.0 0.0 0.00 0.00 0.00 82 1014.2
20260905125110 72 114 0.0 0.0 0.00 0.00 0.00 83 1014.2
20260905124601 72 258 0.0 0.0 0.00 0.00 0.00 84 1014.2
20260905124057 71 249 0.0 0.0 0.00 0.00 0.00 85 1014.3
20260905123552 71 37 1.0 2.0 0.00 0.00 0.00 85 1014.2
20260905123049 71 123 0.0 0.0 0.00 0.00 0.00 86 1014.2
20260905122549 70 246 0.0 1.0 0.00 0.00 0.00 86 1014.3
20260905122044 70 176 0.0 0.0 0.00 0.00 0.00 87 1014.0
20260905121544 70 222 0.0 0.0 0.00 0.00 0.00 87 1014.3
20260905121039 70 123 0.0 0.0 0.00 0.00 0.00 87 1014.3
20260905120538 70 119 0.0 0.0 0.00 0.00 0.00 87 1014.2
20260905120033 70 134 0.0 0.0 0.00 0.00 0.00 86 1014.3
20260905115532 70 185 0.0 0.0 0.00 0.00 0.00 86 1014.3
20260905115027 70 254 1.0 2.0 0.00 0.00 0.00 86 1014.3
20260905114527 70 228 0.0 1.0 0.00 0.00 0.00 86 1014.3
20260905114026 70 227 0.0 1.0 0.00 0.00 0.00 86 1014.3
20260905113521 70 143 0.0 0.0 0.00 0.00 0.00 86 1014.1
20260905113016 70 138 0.0 0.0 0.00 0.00 0.00 86 1014.1
20260905112512 70 138 0.0 0.0 0.00 0.00 0.00 86 1014.0
20260905112007 70 132 0.0 0.0 0.00 0.00 0.00 86 1014.0
20260905111501 70 132 0.0 0.0 0.00 0.00 0.00 86 1014.2
20260905110955 70 118 0.0 0.0 0.00 0.00 0.00 85 1014.0
20260905110455 70 134 0.0 0.0 0.00 0.00 0.00 85 1013.8
20260905105954 70 97 1.0 1.0 0.00 0.00 0.00 85 1013.9
20260905105449 70 101 0.0 0.0 0.00 0.00 0.00 85 1013.9
20260905104948 70 83 0.0 0.0 0.00 0.00 0.00 87 1013.5
20260905104444 70 83 0.0 0.0 0.00 0.00 0.00 86 1013.6
20260905103939 70 81 0.0 0.0 0.00 0.00 0.00 86 1013.3
20260905103434 70 150 0.0 0.0 0.00 0.00 0.00 86 1013.5
20260905102930 70 150 0.0 0.0 0.00 0.00 0.00 85 1013.4
20260905102426 70 168 0.0 0.0 0.00 0.00 0.00 85 1013.3
20260905101921 70 168 0.0 0.0 0.00 0.00 0.00 85 1013.1
20260905101420 70 176 0.0 0.0 0.00 0.00 0.00 85 1013.2
20260905100914 70 201 0.0 0.0 0.00 0.00 0.00 86 1013.2
20260905100410 70 201 0.0 0.0 0.00 0.00 0.00 86 1012.9
20260905095910 70 198 0.0 0.0 0.00 0.00 0.00 86 1013.2
20260905095404 70 222 0.0 0.0 0.00 0.00 0.00 87 1013.0
20260905094859 70 224 0.0 0.0 0.00 0.00 0.00 87 1013.3
20260905094354 70 207 0.0 0.0 0.00 0.00 0.00 87 1013.2
20260905093853 70 196 0.0 1.0 0.00 0.00 0.00 88 1013.3
20260905093349 71 200 0.0 0.0 0.00 0.00 0.00 89 1013.2
20260905092845 71 201 0.0 0.0 0.00 0.00 0.00 89 1013.0
20260905092345 71 229 0.0 0.0 0.00 0.00 0.00 89 1013.1
20260905091840 71 232 0.0 0.0 0.00 0.00 0.00 89 1013.1
20260905091339 71 216 0.0 0.0 0.00 0.00 0.00 88 1012.9
20260905090838 71 216 0.0 0.0 0.00 0.00 0.00 87 1013.2
20260905090334 71 229 0.0 0.0 0.00 0.00 0.00 86 1013.1
20260905085833 71 239 0.0 0.0 0.00 0.00 0.00 86 1013.0
20260905085328 71 226 0.0 0.0 0.00 0.00 0.00 87 1013.2
20260905084824 71 208 0.0 0.0 0.00 0.00 0.00 87 1012.9
20260905084323 71 233 0.0 1.0 0.00 0.00 0.00 87 1013.2
20260905083818 71 195 0.0 1.0 0.00 0.00 0.00 87 1013.1
20260905083314 71 230 0.0 0.0 0.00 0.00 0.00 88 1013.1
20260905082809 71 238 0.0 0.0 0.00 0.00 0.00 88 1013.1
20260905082307 71 241 0.0 1.0 0.00 0.00 0.00 88 1013.1
20260905081805 71 224 0.0 0.0 0.00 0.00 0.00 89 1013.2
20260905081301 71 224 0.0 0.0 0.00 0.00 0.00 89 1013.2
20260905080759 71 192 0.0 0.0 0.00 0.00 0.00 90 1013.3
20260905080254 71 189 0.0 0.0 0.00 0.00 0.00 90 1013.1
20260905075752 71 210 0.0 1.0 0.00 0.00 0.00 91 1013.1
20260905075247 71 199 0.0 0.0 0.00 0.00 0.00 91 1013.0
20260905074746 70 216 0.0 0.0 0.00 0.00 0.00 92 1013.1
20260905074242 70 198 0.0 0.0 0.00 0.00 0.00 93 1013.2
20260905073737 70 198 0.0 0.0 0.00 0.00 0.00 93 1013.2
20260905073233 70 201 0.0 0.0 0.00 0.00 0.00 94 1013.0
20260905072732 70 201 0.0 0.0 0.00 0.00 0.00 94 1013.1
20260905072227 70 204 0.0 0.0 0.00 0.00 0.00 94 1013.0
20260905071724 70 204 0.0 0.0 0.00 0.00 0.00 94 1013.1
20260905071220 70 204 0.0 0.0 0.00 0.00 0.00 94 1013.0
20260905070714 71 204 0.0 0.0 0.00 0.00 0.00 93 1013.2
20260905070210 70 210 0.0 0.0 0.00 0.00 0.00 94 1013.1
20260905065709 70 218 0.0 0.0 0.00 0.00 0.00 94 1013.2
20260905065203 70 219 0.0 0.0 0.00 0.00 0.00 94 1013.2
20260905064659 70 216 0.0 0.0 0.00 0.00 0.00 94 1013.2
20260905064154 70 217 0.0 0.0 0.00 0.00 0.00 94 1013.3
20260905063653 70 217 0.0 0.0 0.00 0.00 0.00 95 1013.3
20260905063149 70 216 0.0 0.0 0.00 0.00 0.00 95 1013.5
20260905062645 70 216 0.0 0.0 0.00 0.00 0.00 95 1013.2
20260905062144 70 213 0.0 0.0 0.00 0.00 0.00 96 1013.6
20260905061639 70 212 0.0 0.0 0.00 0.00 0.00 96 1013.4
20260905061138 71 218 0.0 0.0 0.00 0.00 0.00 96 1013.3
20260905060633 71 219 0.0 0.0 0.00 0.00 0.00 96 1013.6
20260905060130 71 228 1.0 1.0 0.00 0.00 0.00 95 1013.4
20260905055628 71 217 0.0 0.0 0.00 0.00 0.00 95 1013.4
20260905055124 71 217 0.0 0.0 0.00 0.00 0.00 94 1013.7
20260905054619 71 217 0.0 0.0 0.00 0.00 0.00 94 1013.6
20260905054114 71 216 0.0 0.0 0.00 0.00 0.00 94 1013.6
20260905053614 71 216 0.0 0.0 0.00 0.00 0.00 94 1013.7
20260905053109 71 216 0.0 0.0 0.00 0.00 0.00 94 1013.8
20260905052608 71 216 0.0 0.0 0.00 0.00 0.00 94 1013.8
20260905052058 71 216 0.0 0.0 0.00 0.00 0.00 93 1013.7
20260905051553 71 217 0.0 0.0 0.00 0.00 0.00 94 1013.7
20260905051050 71 217 0.0 0.0 0.00 0.00 0.00 93 1013.7
20260905050546 71 217 0.0 0.0 0.00 0.00 0.00 94 1013.7
20260905050043 71 217 0.0 0.0 0.00 0.00 0.00 94 1013.8
20260905045543 72 217 0.0 0.0 0.00 0.00 0.00 94 1014.0
20260905045038 72 217 0.0 0.0 0.00 0.00 0.00 94 1014.0
20260905044532 72 217 0.0 0.0 0.00 0.00 0.00 94 1014.0
20260905044032 72 217 0.0 0.0 0.00 0.00 0.00 93 1013.9
20260905043531 72 217 0.0 0.0 0.00 0.00 0.00 92 1014.0
20260905043027 73 217 0.0 0.0 0.00 0.00 0.00 93 1013.9
20260905042520 73 217 0.0 0.0 0.00 0.00 0.00 92 1013.9
20260905042016 73 217 0.0 0.0 0.00 0.00 0.00 93 1013.9
20260905041512 73 217 0.0 0.0 0.00 0.00 0.00 92 1013.9
20260905041007 74 217 0.0 0.0 0.00 0.00 0.00 93 1014.0
20260905040506 74 222 0.0 1.0 0.00 0.00 0.00 93 1014.3
20260905040005 75 227 0.0 0.0 0.00 0.01 0.01 93 1014.3
20260905035500 75 228 1.0 2.0 0.00 0.01 0.01 92 1014.2
20260905034958 75 240 1.0 1.0 0.00 0.01 0.01 91 1014.2
20260905034458 75 229 1.0 2.0 0.00 0.01 0.01 92 1014.4
20260905033956 75 246 1.0 1.0 0.00 0.01 0.01 93 1014.4
20260905033452 75 229 0.0 0.0 0.00 0.01 0.01 93 1014.3
20260905032946 75 229 0.0 0.0 0.00 0.01 0.01 93 1014.2
20260905032441 75 228 0.0 0.0 0.00 0.01 0.01 93 1014.1
20260905031936 75 228 0.0 0.0 0.00 0.01 0.01 93 1014.1
20260905031432 75 229 0.0 0.0 0.00 0.01 0.01 93 1013.9
20260905030927 75 229 0.0 0.0 0.00 0.01 0.01 93 1013.9
20260905030423 75 229 0.0 0.0 0.00 0.01 0.01 93 1014.1
20260905025921 75 231 0.0 0.0 0.00 0.01 0.01 93 1014.1
20260905025417 75 231 0.0 0.0 0.00 0.01 0.01 93 1014.2
20260905024914 75 231 0.0 0.0 0.00 0.01 0.01 92 1013.9
20260905024408 75 231 0.0 0.0 0.00 0.01 0.01 91 1013.7
20260905023904 75 231 0.0 0.0 0.00 0.01 0.01 91 1013.8
20260905023359 76 231 0.0 0.0 0.00 0.01 0.01 91 1013.8
20260905022857 76 231 0.0 0.0 0.00 0.01 0.01 91 1013.9
20260905022354 76 231 0.0 0.0 0.00 0.01 0.01 91 1013.7
20260905021853 75 231 0.0 0.0 0.00 0.01 0.01 91 1013.8
20260905021348 75 231 0.0 0.0 0.00 0.01 0.01 92 1013.9
20260905020843 75 231 0.0 0.0 0.00 0.01 0.01 92 1013.9
20260905020332 76 231 0.0 0.0 0.00 0.01 0.01 92 1013.6
20260905015831 76 231 0.0 0.0 0.00 0.01 0.01 92 1014.0
20260905015331 76 231 0.0 0.0 0.00 0.01 0.01 92 1013.8
20260905014825 76 231 0.0 0.0 0.00 0.01 0.01 92 1014.1
20260905014321 76 231 0.0 0.0 0.00 0.01 0.01 92 1014.1
20260905013816 76 231 0.0 0.0 0.00 0.01 0.01 91 1013.7
20260905013312 77 231 0.0 0.0 0.00 0.01 0.01 90 1014.1
20260905012807 77 231 0.0 0.0 0.00 0.01 0.01 88 1014.0
20260905012306 77 232 0.0 0.0 0.00 0.01 0.01 87 1013.7
20260905011759 77 230 0.0 0.0 0.00 0.01 0.01 87 1013.7
20260905011254 78 230 0.0 0.0 0.00 0.01 0.01 86 1014.0
20260905010749 78 230 0.0 0.0 0.00 0.01 0.01 86 1014.0
20260905010244 78 230 0.0 0.0 0.00 0.01 0.01 87 1014.1
20260905005741 78 230 0.0 0.0 0.00 0.01 0.01 87 1013.9
20260905005236 78 230 0.0 0.0 0.00 0.01 0.01 87 1013.7
20260905004736 78 230 0.0 0.0 0.00 0.01 0.01 87 1014.0
20260905004231 78 230 0.0 0.0 0.00 0.01 0.01 87 1014.0
20260905003731 78 230 0.0 0.0 0.00 0.01 0.01 87 1013.8
20260905003227 77 230 0.0 0.0 0.00 0.01 0.01 86 1014.0
20260905002722 78 230 0.0 0.0 0.00 0.01 0.01 86 1013.8
20260905002222 78 230 0.0 0.0 0.00 0.01 0.01 86 1013.8
20260905001717 77 230 0.0 0.0 0.00 0.01 0.01 86 1013.8
20260905001216 77 230 0.0 0.0 0.00 0.01 0.01 86 1013.8
20260905000712 77 230 0.0 0.0 0.00 0.01 0.01 86 1013.6
20260905000208 77 230 0.0 0.0 0.00 0.01 0.01 86 1013.8
20260904235708 77 230 0.0 0.0 0.00 0.01 0.01 86 1013.5
20260904235202 77 230 0.0 0.0 0.00 0.01 0.01 86 1013.5
20260904234657 77 230 0.0 0.0 0.00 0.01 0.01 86 1013.3
20260904234153 78 230 0.0 0.0 0.00 0.01 0.01 87 1013.1
20260904233649 78 230 0.0 0.0 0.00 0.01 0.01 86 1013.5
20260904233144 78 230 0.0 0.0 0.00 0.01 0.01 86 1013.4
20260904232641 78 230 0.0 0.0 0.00 0.01 0.01 86 1013.3
20260904232137 78 230 0.0 0.0 0.00 0.01 0.01 86 1013.4
20260904231632 78 231 0.0 0.0 0.00 0.01 0.01 87 1013.1
20260904231127 79 231 0.0 0.0 0.00 0.01 0.01 86 1013.4